Regional Weather Roundup
Issued by NWS Kansas City/Pleasant Hill, MO

Home | Current Version | Previous Version | Graphics & Text | Print | Product List | Glossary Off
Versions: 1 2 3 4 5 6 7 8 9 10 11 12 13 14 15 16 17 18 19 20 21 22 23 24 25 26 27 28 29 30 31 32 33 34 35 36 37 38 39 40 41 42 43 44 45 46 47 48 49 50

480
ASUS43 KEAX 310510
RWREAX

WEATHER ROUNDUP FOR EASTERN KANSAS AND NORTHWEST MISSOURI
NATIONAL WEATHER SERVICE KANSAS CITY/PLEASANT HILL MO
1200 AM CDT TUE MAY 31 2016

KSZ040-057-103>105-MOZ028-029-037-043-310600-
...KANSAS CITY METROPOLITAN AREA...

CITY           SKY/WX    TMP DP  RH WIND       PRES   REMARKS
K.C. INTL      CLEAR     62  58  86 S8        29.96F
K.C. DOWNTOWN  CLEAR     68  59  73 S7        29.96S
LEES SUMMIT    CLEAR     65  60  84 SW8       29.98R
OLATHE - IXD   CLEAR     62  60  93 S5        29.98R
OLATHE - OJC   CLEAR     62  59  90 CALM      29.97S
LAWRENCE       CLEAR     63  60  90 S3        29.97R

$$

MOZ001>008-011>017-020>025-030>033-038>040-044>046-053-054-310600-
...NORTHERN AND CENTRAL MISSOURI...

CITY           SKY/WX    TMP DP  RH WIND       PRES   REMARKS
ST. JOSEPH     CLEAR     66  60  81 S5        29.96R
MOSBY          CLEAR     64  59  82 E3        29.97S
WARRENSBURG    CLEAR     61  59  94 W5        29.96S
WHITEMAN AFB   CLEAR     62  62  99 S6        29.95F
CLINTON        PTCLDY    63  63 100 S6        29.96F
SEDALIA        MOCLDY    64  61  90 S5        29.98S
WARSAW         NOT AVBL
CHILLICOTHE      N/A     64  61  90 CALM      29.98S
KIRKSVILLE     PTCLDY    63  60  90 CALM      29.98F

$$

MOZ041-047>049-056>058-063>065-088>090-097-310600-
...EASTERN AND SOUTHERN MISSOURI...

CITY           SKY/WX    TMP DP  RH WIND       PRES   REMARKS
ST. LOUIS INTL CLOUDY    73  62  68 CALM      29.99S
SPIRIT OF STL  CLOUDY    67  65  93 CALM      29.97F
COLUMBIA       PTCLDY    65  62  90 CALM      29.97F
JEFFERSON CITY MOCLDY    66  63  90 SE3       29.97F
ROLLA          CLOUDY    64  61  90 SE6       29.97F
SPRINGFIELD    CLOUDY    66  62  87 S6        29.98F
JOPLIN         CLOUDY    66  63  90 E8        29.96F
WEST PLAINS    CLOUDY    65  62  90 CALM      30.01F

$$

IAZ060-094-KSZ022-034>040-054-083-096-NEZ052-066-093-310600-
...KANSAS...SOUTHEAST NEBRASKA AND IOWA...

CITY           SKY/WX    TMP DP  RH WIND       PRES   REMARKS
TOPEKA         CLEAR     68  60  75 S5        29.97R
MANHATTAN      CLOUDY    68  62  81 S9        29.93F
EMPORIA        CLEAR     63  61  93 SE8       29.97S
CHANUTE        CLOUDY    65  62  90 SE3       29.97R
WICHITA        MOCLDY    67  61  81 SE15      29.94S
OMAHA          CLOUDY    68  62  81 S14       29.90F
LINCOLN        CLOUDY    72  61  68 S13       29.90S
FALLS CITY     CLEAR     66  62  87 SE6       29.93F
LAMONI         PTCLDY    65  60  84 S10       29.95S
DES MOINES     MOCLDY    69  56  62 SE6       29.94R

$$





USA.gov is the U.S. government's official web portal to all federal, state and local government web resources and services.